Weather History for Pensacola, FL

Change the Weather History Date:

Wednesday, November 28, 2012

  Actual Average Record
Temperature  
Mean Temperature 55 °F 57 °F  
Max Temperature 64 °F 67 °F 82 °F (1990)
Min Temperature 46 °F 48 °F 26 °F (1938)
Degree Days  
Heating Degree Days 10 9  
Month to date heating degree days 167 155  
Since 1 July heating degree days 196 193  
Cooling Degree Days 0 1  
Month to date cooling degree days 25 44  
Year to date cooling degree days 3029 2594  
Growing Degree Days 4 (Base 50)    
Moisture  
Dew Point 43 °F    
Average Humidity 64    
Maximum Humidity 89    
Minimum Humidity 39    
Precipitation  
Precipitation 0.00 in 0.16 in 2.40 in (2005)
Month to date precipitation 1.23 4.40  
Year to date precipitation 64.54 60.39  
Snow  
Snow 0.00 in 0.00 in 0.00 in (2002)
Month to date snowfall 0.0 0.0  
Since 1 July snowfall 0.0 0.0  
Snow Depth 0.00 in    
Sea Level Pressure  
Sea Level Pressure 30.33 in    
Wind  
Wind Speed 8 mph (North)    
Max Wind Speed 16 mph    
Max Gust Speed 20 mph    
Visibility 10 miles    
Events      
T = Trace of Precipitation, MM = Missing Value Source: NWS Daily Summary

Daily Weather History Graph

Daily Weather History Graph

Search for Another Location

Airport:

Trip Planner

Search our weather history database for the weather conditions in past years. The results will help you decide how hot, cold, wet, or windy it might be!

Date:

Astronomy

Nov. 28, 2012 Rise Set
Actual Time 6:26 AM CST 4:47 PM CST
Civil Twilight 5:59 AM CST 5:13 PM CST
Nautical Twilight 5:30 AM CST 5:43 PM CST
Astronomical Twilight 5:01 AM CST 6:12 PM CST
Moon 5:02 PM CST (11/28) 6:23 AM CST (11/28)
Length of Visible Light 11h 13m
Length of Day
10h 21m
Full, 100% of the Moon is Illuminated
Nov 28
Full
Dec 6
Last Quarter
Dec 13
New
Dec 19
First Quarter
Dec 28
Full

Hourly Weather History & Observations

Time (CST) Temp. Dew Point Humidity Pressure Visibility Wind Dir Wind Speed Gust Speed Precip Events Conditions
12:53 AM 53.1 °F 50.0 °F 89% 30.26 in 7.0 mi NNW 11.5 mph - N/A   Overcast
1:53 AM 52.0 °F 48.9 °F 89% 30.27 in 9.0 mi North 12.7 mph - N/A   Overcast
2:02 AM 51.8 °F 48.2 °F 88% 30.26 in 9.0 mi NNW 11.5 mph - N/A   Overcast
2:13 AM 51.8 °F 48.2 °F 88% 30.26 in 8.0 mi NNW 10.4 mph - N/A   Overcast
2:53 AM 52.0 °F 48.9 °F 89% 30.28 in 7.0 mi North 10.4 mph - N/A   Overcast
3:53 AM 51.1 °F 48.0 °F 89% 30.29 in 9.0 mi North 10.4 mph - N/A   Overcast
4:53 AM 51.1 °F 48.0 °F 89% 30.30 in 9.0 mi North 9.2 mph - N/A   Overcast
5:53 AM 51.1 °F 46.0 °F 83% 30.32 in 10.0 mi North 6.9 mph - N/A   Overcast
6:53 AM 50.0 °F 44.1 °F 80% 30.35 in 10.0 mi North 6.9 mph - N/A   Overcast
7:53 AM 48.9 °F 43.0 °F 80% 30.38 in 10.0 mi North 11.5 mph - N/A   Overcast
8:53 AM 50.0 °F 42.1 °F 74% 30.39 in 10.0 mi North 13.8 mph - N/A   Overcast
9:53 AM 53.1 °F 43.0 °F 69% 30.39 in 10.0 mi North 12.7 mph - N/A   Mostly Cloudy
10:08 AM 53.6 °F 42.8 °F 67% 30.38 in 10.0 mi North 11.5 mph - N/A   Scattered Clouds
10:53 AM 55.9 °F 41.0 °F 57% 30.38 in 10.0 mi North 9.2 mph - N/A   Clear
11:53 AM 59.0 °F 41.0 °F 51% 30.35 in 10.0 mi North 11.5 mph - N/A   Clear
12:53 PM 61.0 °F 41.0 °F 48% 30.32 in 10.0 mi Variable 6.9 mph 16.1 mph N/A   Clear
1:53 PM 63.0 °F 39.9 °F 43% 30.29 in 10.0 mi NNE 10.4 mph - N/A   Clear
2:53 PM 63.0 °F 39.0 °F 41% 30.29 in 10.0 mi North 8.1 mph - N/A   Clear
3:53 PM 62.1 °F 37.0 °F 39% 30.30 in 10.0 mi North 8.1 mph - N/A   Clear
4:53 PM 55.9 °F 37.9 °F 51% 30.31 in 10.0 mi North 4.6 mph - N/A   Clear
5:53 PM 53.1 °F 39.9 °F 61% 30.33 in 10.0 mi North 3.5 mph - N/A   Clear
6:53 PM 52.0 °F 41.0 °F 66% 30.35 in 10.0 mi North 4.6 mph - N/A   Clear
7:53 PM 51.1 °F 41.0 °F 68% 30.36 in 10.0 mi North 5.8 mph - N/A   Clear
8:53 PM 50.0 °F 39.9 °F 68% 30.36 in 10.0 mi North 4.6 mph - N/A   Clear
9:53 PM 48.0 °F 39.9 °F 74% 30.35 in 10.0 mi North 3.5 mph - N/A   Clear
10:53 PM 46.9 °F 39.9 °F 77% 30.35 in 10.0 mi Calm Calm - N/A   Clear
11:53 PM 46.9 °F 39.0 °F 74% 30.34 in 10.0 mi Calm Calm - N/A   Clear